Weather in Telenesti

Moldova     47°30′10″N   28°21′49″E
temp.,
°C
wind,
m/s
gust,
m/s
humid.,
%
clouds,
%
prec.,
mm/h
press.,
hPa
HPBL,
m
12 may, wed
wed1200:00+14ne11796 0.0 101511
03:00+13ene1188100 0.0 101410
06:00+11e22965 0.0 101332
09:00+12e7981100 0.0 1014530
12:00+10ese5976100 0.1 1014546
15:00+11sse357498 0.2 1013371
18:00+10ssw1278100 0.0 101299
21:00+10sse227891 0.0 101259
13 may, thu
thu1300:00+9sse2387100 0.4 1012138
03:00+9se3991100 2.1 1011411
06:00+9se31090100 0.6 1010461
09:00+11se7117990 0.6 1009696
12:00+16sse81165100 0.0 10081382
15:00+14sse71185100 0.3 1008878
18:00+13se71387100 0.2 1007789
21:00+13se61373100 0.2 1007398
14 may, fri
fri1400:00+11sse410805 0.0 1007302
03:00+8se229239 0.0 100634
06:00+9se2293100 0.0 100744
09:00+11se1191100 0.6 1008130
12:00+13sse238595 0.1 1008325
15:00+19w125917 0.4 10081214
18:00+18w346668 1.2 1008870
21:00+14nw118110 1.7 100911
15 may, sat
sat1500:00+13sw118412 0.0 101011
03:00+11wnw128778 0.0 101110
06:00+11nnw118777 0.0 101210
09:00+15ene117790 0.0 1013252
12:00+18e22640 0.0 1012785
15:00+21ese235629 0.8 10111400
18:00+20se125725 1.0 1010921
21:00+17ene227412 1.4 101035
16 may, sun
sun1600:00+15se2282100 0.0 101012
03:00+13ese2284100 0.0 101023
06:00+12ese2286100 0.0 101025
09:00+17ese476988 0.0 1010453
12:00+21ese565799 0.0 10091056
15:00+23ese5750100 0.0 10082185
18:00+19ese51071100 1.4 1007264
21:00+17ne1181100 2.2 100811